Retour au catalogue

STARLINK-31696

ActifCommunicationsVLEO
NORAD 59435·PAYLOAD·🇺🇸 United States

Lancé Apr 7, 2024 depuis Vandenberg Space Force Base

Loading…

Prochains Passages (prochaines 24 heures)

TLE

FraisSource: CelesTrak SupGP

Époque: Sep 14, 2026, 21:03 UTC

1 59435C 24065Q   26257.87756944 -.00047019  00000+0 -13893-2 0  2570
2 59435  53.1563 119.8482 0001289  86.3790  77.8550 15.34411858    10

Suivez STARLINK-31696 en temps réel avec AllMySat

Download on the App Store